Simultaneous Nadir Overpasses (SNOs) Predictions

Prediction of SNOs between LANDSAT-8 and METOP-B Satellite Orbit:

Table of predicted SNOs for the next 14.0 days since TLE Epoch: 4/2/2022
Index Date (LANDSAT-8) Time (LANDSAT-8) Lat,Lon (LANDSAT-8) SZA (LANDSAT-8 ) Date (METOP-B) Time (METOP-B) Lat,Lon (METOP-B) SZA (METOP-B ) Distance(km) Time Diff (sec)
1 04/03/2022 07:37:22 81.09, 104.59 77.64 04/03/2022 07:36:38 81.09, 104.62 77.63 0.56 44
2 04/03/2022 08:26:48 -81.11, -87.46 102.33 04/03/2022 08:27:17 -81.12, -87.33 102.30 2.20 29
3 04/06/2022 03:11:35 81.10, 171.13 76.61 04/06/2022 03:10:59 81.10, 171.31 76.62 3.17 36
4 04/06/2022 04:01:01 -81.12, -20.89 103.36 04/06/2022 04:01:39 -81.11, -21.01 103.36 2.18 38
5 04/08/2022 22:45:49 81.09,-122.48 75.57 04/08/2022 22:45:22 81.09,-122.43 75.57 0.94 27
6 04/08/2022 23:35:15 -81.12, 45.52 104.39 04/08/2022 23:36:01 -81.12, 45.63 104.36 1.93 46
7 04/11/2022 18:20:02 81.10, -55.89 74.58 04/11/2022 18:19:44 81.10, -55.86 74.57 0.72 18
8 04/11/2022 19:09:29 -81.11, 111.77 105.44 04/11/2022 19:10:24 -81.11, 111.83 105.40 1.32 55
9 04/14/2022 13:54:14 81.10, 10.55 73.58 04/14/2022 13:54:05 81.10, 10.65 73.58 1.80 9



Historial Predications of SNOs between LANDSAT-8 and METOP-B
